| time (UTC) | temp F | wind direction | speed knots | gust knots | rain 1hr in | rain 24hr in | rain mn in | humidity % | barometer mb |
| 20260507103506 | 57 | 99 | 1.7 | 2.6 | 0.00 | 0.26 | 0.00 | 75 | 1015.6 |
| 20260507103006 | 57 | 71 | 0.0 | 5.2 | 0.00 | 0.26 | 0.00 | 75 | 1015.5 |
| 20260507102506 | 57 | 78 | 1.7 | 5.2 | 0.00 | 0.27 | 0.00 | 75 | 1015.5 |
| 20260507102007 | 57 | 104 | 1.7 | 4.3 | 0.00 | 0.27 | 0.00 | 73 | 1015.5 |
| 20260507101507 | 57 | 118 | 0.9 | 4.3 | 0.00 | 0.27 | 0.00 | 75 | 1015.5 |
| 20260507101006 | 56 | 149 | 0.9 | 1.7 | 0.00 | 0.27 | 0.00 | 79 | 1015.5 |
| 20260507100506 | 55 | 25 | 0.9 | 3.5 | 0.00 | 0.27 | 0.00 | 80 | 1015.4 |
| 20260507100006 | 55 | 15 | 2.6 | 4.3 | 0.00 | 0.28 | 0.00 | 80 | 1015.4 |
| 20260507095506 | 55 | 9 | 0.9 | 7.0 | 0.00 | 0.28 | 0.00 | 79 | 1015.4 |
| 20260507095007 | 55 | 26 | 2.6 | 5.2 | 0.00 | 0.28 | 0.00 | 79 | 1015.4 |
| 20260507094506 | 55 | 30 | 1.7 | 5.2 | 0.00 | 0.28 | 0.00 | 78 | 1015.3 |
| 20260507094006 | 55 | 61 | 2.6 | 6.1 | 0.00 | 0.28 | 0.00 | 79 | 1015.3 |
| 20260507093506 | 55 | 70 | 2.6 | 4.3 | 0.00 | 0.29 | 0.00 | 79 | 1015.3 |
| 20260507093006 | 54 | 86 | 0.0 | 2.6 | 0.00 | 0.29 | 0.00 | 82 | 1015.2 |
| 20260507092506 | 54 | 78 | 0.0 | 5.2 | 0.00 | 0.29 | 0.00 | 83 | 1015.2 |
| 20260507092005 | 54 | 65 | 0.0 | 4.3 | 0.00 | 0.29 | 0.00 | 83 | 1015.2 |
| 20260507091506 | 53 | 53 | 0.0 | 2.6 | 0.00 | 0.30 | 0.00 | 84 | 1015.2 |
| 20260507091005 | 53 | 47 | 0.0 | 5.2 | 0.00 | 0.30 | 0.00 | 84 | 1015.1 |
| 20260507090506 | 53 | 39 | 0.0 | 2.6 | 0.00 | 0.30 | 0.00 | 83 | 1015.0 |
| 20260507090006 | 53 | 12 | 0.0 | 3.5 | 0.00 | 0.30 | 0.00 | 84 | 1015.0 |
| 20260507085506 | 53 | 10 | 0.9 | 2.6 | 0.00 | 0.30 | 0.00 | 85 | 1014.9 |
| 20260507085007 | 53 | 20 | 0.0 | 2.6 | 0.00 | 0.30 | 0.00 | 85 | 1014.9 |
| 20260507084506 | 52 | 53 | 1.7 | 4.3 | 0.00 | 0.30 | 0.00 | 86 | 1014.9 |
| 20260507084006 | 52 | 67 | 1.7 | 5.2 | 0.00 | 0.30 | 0.00 | 87 | 1014.9 |
| 20260507083506 | 52 | 71 | 0.0 | 1.7 | 0.00 | 0.30 | 0.00 | 88 | 1014.9 |
| 20260507083006 | 52 | 72 | 0.0 | 0.0 | 0.00 | 0.30 | 0.00 | 88 | 1014.8 |
| 20260507082506 | 52 | 66 | 0.9 | 2.6 | 0.00 | 0.30 | 0.00 | 88 | 1014.7 |
| 20260507082006 | 52 | 65 | 0.0 | 5.2 | 0.00 | 0.30 | 0.00 | 89 | 1014.8 |
| 20260507081506 | 52 | 50 | 0.0 | 3.5 | 0.00 | 0.30 | 0.00 | 89 | 1014.7 |
| 20260507081006 | 51 | 76 | 0.0 | 3.5 | 0.00 | 0.30 | 0.00 | 89 | 1014.6 |
| 20260507080506 | 52 | 100 | 0.0 | 3.5 | 0.00 | 0.30 | 0.00 | 90 | 1014.6 |
| 20260507080006 | 52 | 118 | 0.9 | 3.5 | 0.00 | 0.30 | 0.00 | 90 | 1014.6 |
| 20260507075506 | 51 | 86 | 0.0 | 1.7 | 0.00 | 0.30 | 0.00 | 91 | 1014.5 |
| 20260507075007 | 51 | 60 | 0.0 | 4.3 | 0.00 | 0.30 | 0.00 | 91 | 1014.4 |
| 20260507074506 | 51 | 68 | 0.0 | 2.6 | 0.00 | 0.30 | 0.00 | 92 | 1014.4 |
| 20260507074006 | 51 | 63 | 0.0 | 0.0 | 0.00 | 0.30 | 0.00 | 93 | 1014.3 |
| 20260507073506 | 51 | 54 | 0.0 | 6.1 | 0.00 | 0.30 | 0.00 | 93 | 1014.3 |
| 20260507073006 | 50 | 38 | 0.0 | 7.0 | 0.00 | 0.30 | 0.00 | 93 | 1014.4 |
| 20260507072506 | 50 | 34 | 2.6 | 6.1 | 0.00 | 0.30 | 0.00 | 94 | 1014.3 |
| 20260507072006 | 50 | 33 | 0.0 | 3.5 | 0.00 | 0.30 | 0.00 | 95 | 1014.3 |
| 20260507071506 | 50 | 37 | 1.7 | 6.1 | 0.00 | 0.30 | 0.00 | 95 | 1014.2 |
| 20260507071005 | 50 | 44 | 2.6 | 4.3 | 0.00 | 0.30 | 0.00 | 95 | 1014.3 |
| 20260507070506 | 50 | 31 | 1.7 | 4.3 | 0.00 | 0.30 | 0.00 | 95 | 1014.3 |
| 20260507070009 | 50 | 26 | 3.5 | 8.7 | 0.00 | 0.30 | 0.00 | 96 | 1014.2 |
| 20260507065505 | 50 | 35 | 0.9 | 2.6 | 0.00 | 0.30 | 0.00 | 96 | 1014.2 |
| 20260507065006 | 49 | 41 | 0.0 | 3.5 | 0.00 | 0.30 | 0.00 | 96 | 1014.1 |
| 20260507064505 | 49 | 40 | 1.7 | 5.2 | 0.00 | 0.30 | 0.00 | 97 | 1014.0 |
| 20260507064005 | 49 | 30 | 0.9 | 7.0 | 0.00 | 0.30 | 0.00 | 97 | 1014.0 |
| 20260507063505 | 49 | 31 | 0.0 | 3.5 | 0.00 | 0.30 | 0.00 | 97 | 1013.9 |
| 20260507063005 | 49 | 37 | 0.0 | 0.0 | 0.00 | 0.30 | 0.00 | 97 | 1013.9 |
| 20260507062505 | 48 | 42 | 0.0 | 3.5 | 0.00 | 0.30 | 0.00 | 97 | 1013.9 |
| 20260507062005 | 48 | 8 | 0.0 | 1.7 | 0.00 | 0.30 | 0.00 | 97 | 1013.8 |
| 20260507061505 | 48 | 22 | 0.0 | 0.0 | 0.00 | 0.30 | 0.00 | 97 | 1013.7 |
| 20260507061005 | 48 | 0 | 0.0 | 1.7 | 0.00 | 0.30 | 0.00 | 97 | 1013.7 |
| 20260507060506 | 47 | 357 | 0.9 | 1.7 | 0.00 | 0.30 | 0.00 | 97 | 1013.6 |
| 20260507060006 | 47 | 8 | 0.0 | 3.5 | 0.00 | 0.30 | 0.00 | 97 | 1013.6 |
| 20260507055505 | 47 | 1 | 0.0 | 2.6 | 0.00 | 0.30 | 0.00 | 97 | 1013.6 |
| 20260507055007 | 47 | 353 | 0.0 | 2.6 | 0.00 | 0.30 | 0.00 | 98 | 1013.5 |
| 20260507054505 | 47 | 333 | 0.0 | 2.6 | 0.00 | 0.30 | 0.00 | 98 | 1013.5 |
| 20260507054006 | 46 | 333 | 0.0 | 3.5 | 0.00 | 0.30 | 0.00 | 98 | 1013.5 |
| 20260507053506 | 46 | 334 | 0.0 | 1.7 | 0.00 | 0.30 | 0.00 | 98 | 1013.4 |
| 20260507053006 | 46 | 333 | 0.0 | 0.0 | 0.00 | 0.30 | 0.00 | 97 | 1013.4 |
| 20260507052506 | 46 | 333 | 0.0 | 0.0 | 0.00 | 0.30 | 0.00 | 98 | 1013.4 |
| 20260507052006 | 46 | 333 | 0.0 | 0.0 | 0.00 | 0.30 | 0.00 | 97 | 1013.4 |
| 20260507051505 | 46 | 333 | 0.0 | 0.0 | 0.00 | 0.30 | 0.00 | 98 | 1013.3 |
| 20260507051006 | 46 | 333 | 0.0 | 0.0 | 0.00 | 0.30 | 0.00 | 98 | 1013.2 |
| 20260507050506 | 46 | 333 | 0.0 | 0.0 | 0.00 | 0.30 | 0.00 | 98 | 1013.1 |
| 20260507050006 | 46 | 333 | 0.0 | 0.0 | 0.00 | 0.30 | 0.00 | 98 | 1013.0 |
| 20260507045506 | 46 | 333 | 0.0 | 0.0 | 0.00 | 0.30 | 0.00 | 98 | 1012.9 |
| 20260507045007 | 46 | 353 | 0.0 | 0.0 | 0.00 | 0.30 | 0.00 | 98 | 1012.8 |
| 20260507044506 | 46 | 18 | 0.0 | 0.0 | 0.00 | 0.30 | 0.00 | 98 | 1012.8 |
| 20260507044006 | 46 | 39 | 0.0 | 0.9 | 0.00 | 0.30 | 0.00 | 98 | 1012.7 |
| 20260507043506 | 46 | 42 | 0.0 | 0.0 | 0.00 | 0.30 | 0.00 | 98 | 1012.8 |
| 20260507043006 | 46 | 42 | 0.0 | 0.0 | 0.00 | 0.30 | 0.00 | 98 | 1012.8 |
| 20260507042506 | 46 | 42 | 0.0 | 0.0 | 0.00 | 0.30 | 0.00 | 98 | 1012.7 |
| 20260507042005 | 46 | 42 | 0.0 | 0.0 | 0.00 | 0.30 | 0.00 | 98 | 1012.6 |
| 20260507041506 | 45 | 42 | 0.0 | 0.0 | 0.00 | 0.30 | 0.00 | 98 | 1012.6 |
| 20260507041006 | 45 | 42 | 0.0 | 0.0 | 0.00 | 0.30 | 0.00 | 98 | 1012.6 |
| 20260507040506 | 45 | 42 | 0.0 | 0.0 | 0.00 | 0.30 | 0.00 | 98 | 1012.5 |
| 20260507040006 | 45 | 42 | 0.0 | 0.0 | 0.00 | 0.30 | 0.00 | 98 | 1012.5 |
| 20260507035506 | 45 | 39 | 0.0 | 0.0 | 0.00 | 0.30 | 0.00 | 98 | 1012.5 |
| 20260507035007 | 45 | 37 | 0.0 | 1.7 | 0.00 | 0.30 | 0.00 | 98 | 1012.4 |
| 20260507034506 | 45 | 21 | 0.0 | 0.0 | 0.00 | 0.30 | 0.00 | 98 | 1012.4 |
| 20260507034006 | 45 | 0 | 0.0 | 0.0 | 0.00 | 0.30 | 0.00 | 98 | 1012.4 |
| 20260507033506 | 45 | 357 | 0.0 | 0.0 | 0.00 | 0.30 | 0.00 | 98 | 1012.3 |
| 20260507032506 | 45 | 26 | 0.9 | 2.6 | 0.00 | 0.30 | 0.00 | 98 | 1012.2 |
| 20260507032006 | 44 | 39 | 0.0 | 1.7 | 0.00 | 0.30 | 0.00 | 98 | 1012.2 |
| 20260507031506 | 44 | 42 | 0.0 | 0.0 | 0.00 | 0.30 | 0.00 | 98 | 1012.1 |
| 20260507031006 | 44 | 42 | 0.0 | 0.0 | 0.00 | 0.30 | 0.00 | 98 | 1012.1 |
| 20260507030506 | 44 | 42 | 0.0 | 0.0 | 0.00 | 0.30 | 0.00 | 98 | 1012.0 |
| 20260507030006 | 43 | 42 | 0.0 | 0.9 | 0.00 | 0.30 | 0.00 | 98 | 1012.0 |
| 20260507025506 | 43 | 41 | 0.0 | 0.0 | 0.00 | 0.30 | 0.00 | 97 | 1012.0 |
| 20260507025007 | 43 | 21 | 0.0 | 0.0 | 0.00 | 0.30 | 0.00 | 97 | 1011.9 |
| 20260507024506 | 42 | 328 | 0.0 | 0.9 | 0.00 | 0.30 | 0.00 | 97 | 1011.9 |
| 20260507024006 | 42 | 289 | 0.0 | 1.7 | 0.00 | 0.30 | 0.00 | 97 | 1011.8 |
| 20260507023506 | 42 | 281 | 0.0 | 0.0 | 0.00 | 0.30 | 0.00 | 97 | 1011.8 |
| 20260507023006 | 42 | 281 | 0.0 | 0.0 | 0.00 | 0.30 | 0.00 | 97 | 1011.8 |
| 20260507022505 | 42 | 281 | 0.0 | 0.9 | 0.00 | 0.30 | 0.00 | 97 | 1011.8 |
| 20260507022005 | 43 | 290 | 0.0 | 0.0 | 0.00 | 0.30 | 0.00 | 97 | 1011.7 |
| 20260507021505 | 42 | 321 | 0.0 | 0.0 | 0.00 | 0.30 | 0.00 | 97 | 1011.7 |
| 20260507021005 | 43 | 357 | 0.0 | 0.9 | 0.00 | 0.30 | 0.00 | 97 | 1011.6 |
| 20260507020505 | 43 | 15 | 0.0 | 0.0 | 0.00 | 0.30 | 0.00 | 97 | 1011.6 |
| 20260507020005 | 43 | 15 | 0.0 | 0.0 | 0.00 | 0.30 | 0.00 | 97 | 1011.6 |
| 20260507015506 | 43 | 15 | 0.0 | 0.0 | 0.00 | 0.30 | 0.00 | 97 | 1011.6 |
| 20260507015006 | 43 | 15 | 0.0 | 0.0 | 0.00 | 0.30 | 0.00 | 97 | 1011.6 |
| 20260507014505 | 43 | 15 | 0.0 | 0.0 | 0.00 | 0.30 | 0.00 | 97 | 1011.6 |
| 20260507014005 | 43 | 15 | 0.0 | 0.0 | 0.00 | 0.30 | 0.00 | 97 | 1011.6 |
| 20260507013505 | 43 | 15 | 0.0 | 0.0 | 0.00 | 0.30 | 0.00 | 97 | 1011.5 |
| 20260507013005 | 43 | 15 | 0.0 | 0.0 | 0.00 | 0.30 | 0.00 | 97 | 1011.5 |
| 20260507012505 | 43 | 15 | 0.0 | 0.0 | 0.00 | 0.30 | 0.00 | 97 | 1011.5 |
| 20260507012005 | 43 | 15 | 0.0 | 0.0 | 0.00 | 0.30 | 0.00 | 97 | 1011.4 |
| 20260507011506 | 43 | 15 | 0.0 | 0.0 | 0.00 | 0.30 | 0.00 | 97 | 1011.4 |
| 20260507011005 | 44 | 15 | 0.0 | 0.0 | 0.00 | 0.30 | 0.00 | 97 | 1011.3 |
| 20260507010506 | 44 | 15 | 0.0 | 0.0 | 0.00 | 0.30 | 0.00 | 97 | 1011.3 |
| 20260507010005 | 44 | 15 | 0.0 | 0.0 | 0.00 | 0.30 | 0.00 | 97 | 1011.3 |
| 20260507005506 | 44 | 15 | 0.0 | 0.0 | 0.00 | 0.30 | 0.00 | 97 | 1011.2 |
| 20260507005007 | 44 | 15 | 0.0 | 0.0 | 0.00 | 0.30 | 0.00 | 97 | 1011.2 |
| 20260507004506 | 44 | 15 | 0.0 | 0.0 | 0.00 | 0.30 | 0.00 | 97 | 1011.1 |
| 20260507004006 | 44 | 15 | 0.0 | 0.0 | 0.00 | 0.30 | 0.00 | 97 | 1011.1 |
| 20260507003506 | 44 | 15 | 0.0 | 0.0 | 0.00 | 0.30 | 0.00 | 97 | 1011.2 |
| 20260507003006 | 44 | 15 | 0.0 | 0.0 | 0.00 | 0.30 | 0.00 | 97 | 1011.1 |
| 20260507002506 | 44 | 15 | 0.0 | 0.0 | 0.00 | 0.30 | 0.00 | 97 | 1011.1 |
| 20260507002005 | 45 | 15 | 0.0 | 0.0 | 0.00 | 0.30 | 0.00 | 97 | 1011.1 |
| 20260507001506 | 45 | 15 | 0.0 | 0.0 | 0.00 | 0.30 | 0.00 | 97 | 1011.1 |
| 20260507001006 | 45 | 15 | 0.0 | 0.0 | 0.00 | 0.30 | 0.00 | 97 | 1011.1 |
| 20260507000505 | 45 | 15 | 0.0 | 0.0 | 0.00 | 0.30 | 0.00 | 97 | 1011.0 |
| 20260507000005 | 46 | 15 | 0.0 | 0.0 | 0.00 | 0.30 | 0.00 | 97 | 1011.0 |
| 20260506235506 | 46 | 15 | 0.0 | 0.0 | 0.00 | 0.30 | 0.00 | 97 | 1011.1 |
| 20260506235007 | 46 | 15 | 0.0 | 0.0 | 0.00 | 0.30 | 0.00 | 97 | 1011.0 |
| 20260506234506 | 46 | 6 | 0.0 | 1.7 | 0.00 | 0.30 | 0.00 | 97 | 1011.0 |
| 20260506234006 | 46 | 3 | 0.0 | 0.0 | 0.00 | 0.30 | 0.00 | 97 | 1011.0 |
| 20260506233506 | 46 | 3 | 0.0 | 0.0 | 0.00 | 0.30 | 0.00 | 97 | 1011.0 |
| 20260506233006 | 47 | 3 | 0.0 | 0.0 | 0.00 | 0.30 | 0.00 | 97 | 1011.0 |
| 20260506232505 | 47 | 3 | 0.0 | 0.0 | 0.00 | 0.30 | 0.00 | 97 | 1011.0 |
| 20260506232006 | 47 | 3 | 0.0 | 0.9 | 0.00 | 0.30 | 0.00 | 97 | 1010.9 |
| 20260506231506 | 47 | 3 | 0.0 | 0.0 | 0.00 | 0.30 | 0.00 | 96 | 1010.9 |
| 20260506231006 | 47 | 3 | 0.0 | 0.0 | 0.00 | 0.30 | 0.00 | 96 | 1010.9 |
| 20260506230506 | 48 | 3 | 0.0 | 0.0 | 0.00 | 0.30 | 0.00 | 96 | 1010.8 |
| 20260506230005 | 48 | 3 | 0.0 | 0.0 | 0.00 | 0.30 | 0.00 | 96 | 1010.8 |
| 20260506225505 | 48 | 3 | 0.0 | 0.0 | 0.00 | 0.30 | 0.00 | 96 | 1010.8 |
| 20260506225007 | 48 | 3 | 0.0 | 0.0 | 0.00 | 0.30 | 0.00 | 96 | 1010.8 |
| 20260506224505 | 48 | 3 | 0.0 | 0.0 | 0.00 | 0.30 | 0.00 | 96 | 1010.8 |
| 20260506224005 | 48 | 3 | 0.0 | 0.0 | 0.00 | 0.30 | 0.00 | 96 | 1010.8 |
| 20260506223505 | 48 | 3 | 0.0 | 0.0 | 0.00 | 0.30 | 0.00 | 96 | 1010.8 |
| 20260506223005 | 49 | 3 | 0.0 | 0.0 | 0.00 | 0.30 | 0.00 | 96 | 1010.8 |
| 20260506222505 | 49 | 3 | 0.0 | 0.0 | 0.00 | 0.30 | 0.00 | 96 | 1010.7 |
| 20260506222006 | 49 | 3 | 0.0 | 0.0 | 0.00 | 0.30 | 0.00 | 96 | 1010.7 |
| 20260506221506 | 49 | 3 | 0.0 | 0.0 | 0.00 | 0.30 | 0.00 | 96 | 1010.6 |
| 20260506221005 | 50 | 3 | 0.0 | 0.0 | 0.00 | 0.30 | 0.00 | 96 | 1010.6 |
| 20260506220505 | 50 | 3 | 0.0 | 0.0 | 0.00 | 0.30 | 0.00 | 96 | 1010.6 |
| 20260506220005 | 50 | 3 | 0.0 | 0.0 | 0.00 | 0.30 | 0.00 | 96 | 1010.6 |
| 20260506215505 | 50 | 3 | 0.0 | 0.0 | 0.00 | 0.30 | 0.30 | 96 | 1010.7 |
| 20260506215007 | 50 | 3 | 0.0 | 0.0 | 0.00 | 0.30 | 0.30 | 96 | 1010.6 |
| 20260506214505 | 50 | 3 | 0.0 | 0.0 | 0.00 | 0.30 | 0.30 | 96 | 1010.5 |
| 20260506214005 | 50 | 3 | 0.0 | 0.0 | 0.00 | 0.30 | 0.30 | 96 | 1010.5 |
| 20260506213505 | 50 | 3 | 0.0 | 0.0 | 0.00 | 0.30 | 0.30 | 96 | 1010.5 |
| 20260506213005 | 50 | 3 | 0.0 | 0.0 | 0.00 | 0.30 | 0.30 | 96 | 1010.4 |
| 20260506212505 | 50 | 3 | 0.0 | 0.0 | 0.00 | 0.30 | 0.30 | 96 | 1010.4 |
| 20260506212005 | 50 | 3 | 0.0 | 0.0 | 0.00 | 0.30 | 0.30 | 96 | 1010.4 |
| 20260506211505 | 50 | 3 | 0.0 | 0.0 | 0.00 | 0.30 | 0.30 | 96 | 1010.4 |
| 20260506211006 | 50 | 3 | 0.0 | 0.0 | 0.00 | 0.30 | 0.30 | 96 | 1010.4 |
| 20260506210505 | 50 | 3 | 0.0 | 0.0 | 0.00 | 0.30 | 0.30 | 96 | 1010.4 |
| 20260506210005 | 50 | 3 | 0.0 | 0.0 | 0.00 | 0.30 | 0.30 | 96 | 1010.3 |
| 20260506205505 | 50 | 3 | 0.0 | 0.0 | 0.00 | 0.30 | 0.30 | 96 | 1010.3 |
| 20260506205006 | 50 | 3 | 0.0 | 0.0 | 0.00 | 0.30 | 0.30 | 96 | 1010.2 |
| 20260506204505 | 50 | 3 | 0.0 | 0.0 | 0.00 | 0.30 | 0.30 | 96 | 1010.3 |
| 20260506204005 | 50 | 3 | 0.0 | 0.0 | 0.00 | 0.30 | 0.30 | 96 | 1010.3 |
| 20260506203505 | 50 | 3 | 0.0 | 0.0 | 0.00 | 0.30 | 0.30 | 96 | 1010.3 |
| 20260506203005 | 50 | 3 | 0.0 | 0.0 | 0.00 | 0.30 | 0.30 | 96 | 1010.3 |
| 20260506202505 | 50 | 3 | 0.0 | 0.0 | 0.00 | 0.30 | 0.30 | 96 | 1010.3 |
| 20260506202005 | 50 | 3 | 0.0 | 0.0 | 0.00 | 0.30 | 0.30 | 96 | 1010.3 |
| 20260506201505 | 51 | 3 | 0.0 | 0.0 | 0.00 | 0.30 | 0.30 | 96 | 1010.3 |
| 20260506201005 | 51 | 3 | 0.0 | 0.0 | 0.00 | 0.30 | 0.30 | 96 | 1010.3 |
| 20260506200505 | 51 | 3 | 0.0 | 0.0 | 0.00 | 0.30 | 0.30 | 96 | 1010.3 |
| 20260506200005 | 51 | 3 | 0.0 | 0.0 | 0.00 | 0.30 | 0.30 | 96 | 1010.2 |
| 20260506195506 | 51 | 3 | 0.0 | 0.0 | 0.00 | 0.30 | 0.30 | 96 | 1010.2 |
| 20260506195007 | 51 | 3 | 0.0 | 0.0 | 0.00 | 0.30 | 0.30 | 96 | 1010.2 |
| 20260506194506 | 51 | 3 | 0.0 | 0.0 | 0.00 | 0.30 | 0.30 | 96 | 1010.1 |
| 20260506194006 | 51 | 3 | 0.0 | 0.0 | 0.00 | 0.30 | 0.30 | 96 | 1010.1 |
| 20260506193506 | 51 | 3 | 0.0 | 0.0 | 0.00 | 0.30 | 0.30 | 96 | 1010.1 |
| 20260506193006 | 51 | 3 | 0.0 | 0.0 | 0.00 | 0.30 | 0.30 | 96 | 1010.0 |
| 20260506192506 | 51 | 3 | 0.0 | 0.0 | 0.00 | 0.30 | 0.30 | 96 | 1009.9 |
| 20260506192006 | 51 | 3 | 0.0 | 0.0 | 0.00 | 0.30 | 0.30 | 96 | 1009.9 |
| 20260506191506 | 51 | 3 | 0.0 | 0.0 | 0.00 | 0.30 | 0.30 | 95 | 1009.9 |
| 20260506190506 | 51 | 3 | 0.0 | 0.0 | 0.00 | 0.30 | 0.30 | 95 | 1009.8 |
| 20260506190006 | 51 | 3 | 0.0 | 0.0 | 0.00 | 0.30 | 0.30 | 95 | 1009.7 |
| 20260506185505 | 51 | 3 | 0.0 | 0.0 | 0.00 | 0.30 | 0.30 | 95 | 1009.7 |
| 20260506185006 | 51 | 3 | 0.0 | 0.0 | 0.00 | 0.30 | 0.30 | 95 | 1009.6 |
| 20260506184505 | 51 | 3 | 0.0 | 0.0 | 0.00 | 0.30 | 0.30 | 95 | 1009.6 |
| 20260506184005 | 52 | 3 | 0.0 | 0.0 | 0.00 | 0.30 | 0.30 | 95 | 1009.6 |
| 20260506183505 | 52 | 3 | 0.0 | 0.0 | 0.00 | 0.30 | 0.30 | 95 | 1009.5 |
| 20260506183006 | 52 | 3 | 0.0 | 0.0 | 0.00 | 0.30 | 0.30 | 95 | 1009.4 |
| 20260506182505 | 52 | 3 | 0.0 | 0.0 | 0.00 | 0.30 | 0.30 | 95 | 1009.3 |
| 20260506182005 | 52 | 3 | 0.0 | 0.0 | 0.00 | 0.30 | 0.30 | 95 | 1009.4 |
| 20260506181505 | 52 | 3 | 0.0 | 0.0 | 0.00 | 0.30 | 0.30 | 95 | 1009.3 |
| 20260506181005 | 52 | 3 | 0.0 | 0.0 | 0.00 | 0.30 | 0.30 | 95 | 1009.3 |
| 20260506180505 | 52 | 3 | 0.0 | 0.0 | 0.01 | 0.30 | 0.30 | 95 | 1009.3 |
| 20260506180006 | 52 | 3 | 0.0 | 0.0 | 0.01 | 0.30 | 0.30 | 95 | 1009.2 |
| 20260506175505 | 52 | 3 | 0.0 | 0.0 | 0.01 | 0.30 | 0.30 | 95 | 1009.2 |
| 20260506175006 | 52 | 3 | 0.0 | 0.0 | 0.01 | 0.30 | 0.30 | 95 | 1009.2 |
| 20260506174505 | 52 | 3 | 0.0 | 0.0 | 0.01 | 0.30 | 0.30 | 95 | 1009.2 |
| 20260506174005 | 52 | 3 | 0.0 | 0.0 | 0.01 | 0.30 | 0.30 | 95 | 1009.2 |
| 20260506173505 | 52 | 3 | 0.0 | 0.0 | 0.01 | 0.30 | 0.30 | 95 | 1009.1 |
| 20260506173005 | 52 | 3 | 0.0 | 0.0 | 0.01 | 0.30 | 0.30 | 95 | 1009.2 |
| 20260506172505 | 52 | 3 | 0.0 | 0.0 | 0.01 | 0.30 | 0.30 | 95 | 1009.1 |
| 20260506172005 | 52 | 1 | 0.0 | 0.0 | 0.02 | 0.30 | 0.30 | 95 | 1009.1 |
| 20260506171505 | 52 | 346 | 0.0 | 0.0 | 0.02 | 0.30 | 0.30 | 95 | 1009.0 |
| 20260506171005 | 52 | 330 | 0.0 | 1.7 | 0.02 | 0.30 | 0.30 | 95 | 1009.0 |
| 20260506170505 | 52 | 315 | 0.0 | 0.0 | 0.02 | 0.29 | 0.29 | 94 | 1009.0 |
| 20260506170006 | 52 | 315 | 0.0 | 0.0 | 0.02 | 0.29 | 0.29 | 94 | 1009.0 |
| 20260506165505 | 52 | 323 | 0.0 | 0.0 | 0.02 | 0.29 | 0.29 | 94 | 1009.0 |
| 20260506165007 | 52 | 317 | 0.0 | 0.0 | 0.03 | 0.29 | 0.29 | 94 | 1008.9 |
| 20260506164505 | 52 | 312 | 0.0 | 3.5 | 0.03 | 0.29 | 0.29 | 94 | 1009.0 |
| 20260506164005 | 52 | 299 | 0.0 | 0.0 | 0.04 | 0.29 | 0.29 | 94 | 1009.0 |
| 20260506163505 | 52 | 299 | 0.0 | 0.0 | 0.04 | 0.29 | 0.29 | 94 | 1009.0 |
| 20260506163005 | 52 | 299 | 0.0 | 0.0 | 0.04 | 0.29 | 0.29 | 94 | 1009.0 |
| 20260506162505 | 52 | 330 | 0.0 | 1.7 | 0.04 | 0.29 | 0.29 | 94 | 1009.0 |
| 20260506162005 | 52 | 354 | 0.0 | 0.0 | 0.04 | 0.28 | 0.28 | 94 | 1009.0 |
| 20260506161505 | 52 | 11 | 0.9 | 1.7 | 0.04 | 0.28 | 0.28 | 94 | 1009.0 |
| 20260506161005 | 52 | 14 | 0.0 | 0.0 | 0.05 | 0.28 | 0.28 | 94 | 1009.1 |
| 20260506160505 | 51 | 356 | 0.0 | 0.9 | 0.04 | 0.27 | 0.27 | 94 | 1009.0 |
| 20260506160006 | 51 | 1 | 0.9 | 2.6 | 0.05 | 0.27 | 0.27 | 94 | 1009.1 |
| 20260506155506 | 51 | 20 | 0.0 | 1.7 | 0.05 | 0.27 | 0.27 | 94 | 1009.1 |
| 20260506155007 | 51 | 42 | 0.0 | 0.9 | 0.04 | 0.26 | 0.26 | 93 | 1009.1 |
| 20260506154506 | 51 | 57 | 0.0 | 2.6 | 0.05 | 0.26 | 0.26 | 94 | 1009.1 |
| 20260506154006 | 51 | 26 | 0.0 | 2.6 | 0.04 | 0.25 | 0.25 | 94 | 1009.2 |
| 20260506153506 | 51 | 10 | 0.0 | 0.0 | 0.04 | 0.25 | 0.25 | 93 | 1009.1 |
| 20260506153006 | 51 | 353 | 0.0 | 3.5 | 0.04 | 0.25 | 0.25 | 93 | 1009.2 |
| 20260506152506 | 51 | 339 | 0.9 | 2.6 | 0.05 | 0.25 | 0.25 | 93 | 1009.2 |
| 20260506152006 | 51 | 351 | 0.0 | 1.7 | 0.04 | 0.24 | 0.24 | 93 | 1009.2 |
| 20260506151506 | 51 | 6 | 0.0 | 1.7 | 0.05 | 0.24 | 0.24 | 93 | 1009.2 |
| 20260506151006 | 51 | 14 | 0.0 | 3.5 | 0.04 | 0.23 | 0.23 | 93 | 1009.1 |
| 20260506150506 | 51 | 13 | 0.0 | 3.5 | 0.04 | 0.23 | 0.23 | 93 | 1009.2 |
| 20260506150006 | 51 | 1 | 0.0 | 4.3 | 0.03 | 0.22 | 0.22 | 93 | 1009.1 |
| 20260506145506 | 51 | 0 | 0.9 | 3.5 | 0.04 | 0.22 | 0.22 | 92 | 1009.1 |
| 20260506145007 | 51 | 15 | 0.0 | 2.6 | 0.04 | 0.22 | 0.22 | 93 | 1009.1 |
| 20260506144506 | 51 | 41 | 1.7 | 2.6 | 0.04 | 0.21 | 0.21 | 93 | 1009.0 |
| 20260506144006 | 51 | 47 | 0.0 | 3.5 | 0.04 | 0.21 | 0.21 | 93 | 1009.1 |
| 20260506143506 | 51 | 61 | 0.9 | 4.3 | 0.04 | 0.21 | 0.21 | 92 | 1009.0 |
| 20260506143006 | 52 | 13 | 1.7 | 3.5 | 0.05 | 0.21 | 0.21 | 93 | 1009.0 |
| 20260506142506 | 51 | 16 | 0.0 | 1.7 | 0.04 | 0.20 | 0.20 | 92 | 1008.9 |
| 20260506142006 | 51 | 19 | 0.0 | 2.6 | 0.05 | 0.20 | 0.20 | 92 | 1008.9 |
| 20260506141505 | 51 | 21 | 0.9 | 1.7 | 0.04 | 0.19 | 0.19 | 92 | 1009.0 |
| 20260506141005 | 52 | 21 | 1.7 | 4.3 | 0.04 | 0.19 | 0.19 | 92 | 1009.0 |
| 20260506140505 | 51 | 12 | 0.0 | 4.3 | 0.05 | 0.19 | 0.19 | 92 | 1009.0 |
| 20260506140005 | 52 | 23 | 1.7 | 1.7 | 0.05 | 0.19 | 0.19 | 92 | 1009.0 |
| 20260506135505 | 52 | 50 | 0.0 | 0.9 | 0.04 | 0.18 | 0.18 | 92 | 1009.0 |
| 20260506135006 | 52 | 65 | 0.9 | 1.7 | 0.05 | 0.18 | 0.18 | 92 | 1009.0 |
| 20260506134505 | 52 | 78 | 0.0 | 0.0 | 0.04 | 0.17 | 0.17 | 91 | 1008.9 |
| 20260506134005 | 52 | 32 | 0.0 | 2.6 | 0.04 | 0.17 | 0.17 | 91 | 1009.0 |
| 20260506133505 | 52 | 22 | 0.0 | 3.5 | 0.04 | 0.17 | 0.17 | 91 | 1009.0 |
| 20260506133005 | 52 | 22 | 0.9 | 2.6 | 0.04 | 0.16 | 0.16 | 91 | 1009.0 |
| 20260506132505 | 52 | 28 | 0.9 | 1.7 | 0.04 | 0.16 | 0.16 | 91 | 1009.0 |
| 20260506132005 | 52 | 37 | 0.0 | 2.6 | 0.03 | 0.15 | 0.15 | 90 | 1009.0 |
| 20260506131505 | 52 | 25 | 0.0 | 2.6 | 0.04 | 0.15 | 0.15 | 91 | 1008.9 |
| 20260506131005 | 52 | 24 | 1.7 | 3.5 | 0.04 | 0.15 | 0.15 | 91 | 1008.9 |
| 20260506130505 | 52 | 7 | 0.0 | 2.6 | 0.04 | 0.14 | 0.14 | 91 | 1008.8 |
| 20260506130005 | 52 | 352 | 0.0 | 3.5 | 0.04 | 0.14 | 0.14 | 91 | 1008.8 |
| 20260506125505 | 52 | 3 | 0.0 | 2.6 | 0.05 | 0.14 | 0.14 | 91 | 1008.8 |
| 20260506125006 | 52 | 337 | 0.0 | 3.5 | 0.04 | 0.13 | 0.13 | 91 | 1008.8 |
| 20260506124505 | 52 | 324 | 0.0 | 3.5 | 0.05 | 0.13 | 0.13 | 91 | 1008.8 |
| 20260506124005 | 52 | 322 | 1.7 | 4.3 | 0.05 | 0.13 | 0.13 | 90 | 1008.8 |
| 20260506123505 | 52 | 334 | 0.0 | 0.0 | 0.06 | 0.13 | 0.13 | 90 | 1008.8 |
| 20260506123005 | 52 | 349 | 0.0 | 1.7 | 0.05 | 0.12 | 0.12 | 90 | 1008.8 |
| 20260506122505 | 52 | 9 | 0.0 | 1.7 | 0.06 | 0.12 | 0.12 | 90 | 1008.7 |
| 20260506122006 | 52 | 2 | 1.7 | 7.8 | 0.06 | 0.12 | 0.12 | 89 | 1008.7 |
| 20260506121506 | 52 | 355 | 0.9 | 1.7 | 0.05 | 0.11 | 0.11 | 89 | 1008.7 |
| 20260506121006 | 52 | 357 | 0.9 | 3.5 | 0.05 | 0.11 | 0.11 | 89 | 1008.7 |
| 20260506120506 | 52 | 1 | 0.9 | 1.7 | 0.05 | 0.10 | 0.10 | 89 | 1008.6 |
| 20260506120005 | 52 | 13 | 1.7 | 2.6 | 0.05 | 0.10 | 0.10 | 89 | 1008.6 |
| 20260506115505 | 52 | 16 | 0.0 | 0.9 | 0.04 | 0.09 | 0.09 | 89 | 1008.6 |
| 20260506115006 | 52 | 21 | 1.7 | 3.5 | 0.04 | 0.09 | 0.09 | 88 | 1008.5 |
| 20260506114505 | 52 | 14 | 0.9 | 1.7 | 0.04 | 0.08 | 0.08 | 88 | 1008.5 |
| 20260506114005 | 52 | 13 | 0.9 | 3.5 | 0.04 | 0.08 | 0.08 | 88 | 1008.5 |
| 20260506113505 | 52 | 21 | 1.7 | 4.3 | 0.03 | 0.07 | 0.07 | 88 | 1008.5 |
| 20260506113005 | 52 | 13 | 1.7 | 2.6 | 0.03 | 0.07 | 0.07 | 88 | 1008.5 |
| 20260506112505 | 52 | 28 | 1.7 | 4.3 | 0.03 | 0.06 | 0.06 | 88 | 1008.5 |
| 20260506112005 | 52 | 36 | 0.9 | 4.3 | 0.03 | 0.06 | 0.06 | 88 | 1008.5 |
| 20260506111505 | 52 | 357 | 0.9 | 2.6 | 0.03 | 0.06 | 0.06 | 87 | 1008.5 |
| 20260506111005 | 52 | 333 | 0.0 | 4.3 | 0.03 | 0.06 | 0.06 | 87 | 1008.4 |
| 20260506110505 | 52 | 331 | 0.0 | 1.7 | 0.02 | 0.05 | 0.05 | 87 | 1008.5 |
| 20260506110005 | 52 | 330 | 0.0 | 0.0 | 0.03 | 0.05 | 0.05 | 87 | 1008.5 |
| 20260506105505 | 52 | 343 | 0.0 | 1.7 | 0.03 | 0.05 | 0.05 | 86 | 1008.5 |
| 20260506105006 | 52 | 346 | 0.9 | 1.7 | 0.03 | 0.05 | 0.05 | 86 | 1008.4 |
| 20260506104505 | 52 | 342 | 0.0 | 1.7 | 0.02 | 0.04 | 0.04 | 86 | 1008.5 |
| 20260506104005 | 52 | 349 | 0.0 | 1.7 | 0.02 | 0.04 | 0.04 | 85 | 1008.5 |